Port Angeles, WA
on Sunday, November 4, 2012

Sunday
Previous Day Next Day
Daily Summary
 ActualAverageRecord
Temperature
Mean Temperature °F °F  
Max Temperature 60°F 53°F 66°F (1975)
Min Temperature 51°F 41°F 25°F (2003)
Degree Days
Heating Degree Days 10    
Growing Degree Days5 (Base °F )  
Moisture
Dew Point 52°F   
Average Humidity 93    
Maximum Humidity 97    
Minimum Humidity 80    
Precipitation
Precipitation 0.12 in in in ()
Wind
Wind Speed 2 mph   
Max Wind Speed 15 mph   
Max Gust Speed 22 mph   
Visibility 5 miles   
Events Fog , Rain   
Averages and records for this station are not official NWS values.
Key: T is trace of precipitation, MM is missing value
Source: NWS Daily Summary
Seasonal Weather Averages
Time(PST)TemperatureDew PointHumidity Pressure Visibility Wind DirectionWind SpeedGust SpeedPrecipitationEvents Conditions
12:35 AM 52.0°F 51.1°F 97% 30.14 in 2.5 miles Calm Calm - N/A   Overcast
12:43 AM 53.1°F 51.1°F 93% 30.14 in 10.0 miles Calm Calm - N/A   Overcast
12:53 AM 53.1°F 51.1°F 93% 30.15 in 10.0 miles Calm Calm - N/A   Overcast
1:53 AM 52.0°F 51.1°F 97% 30.17 in 9.0 miles Calm Calm - N/A   Overcast
1:07 AM 52.0°F 50.0°F 93% 30.15 in 10.0 miles Calm Calm - N/A   Overcast
1:45 AM 53.1°F 51.1°F 93% 30.16 in 10.0 miles ESE 3.5 mph - N/A   Overcast
1:53 AM 54.0°F 51.1°F 90% 30.17 in 10.0 miles SE 3.5 mph - N/A   Overcast
2:07 AM 54.0°F 51.1°F 90% 30.16 in 10.0 miles SE 4.6 mph - N/A   Overcast
2:53 AM 54.0°F 52.0°F 93% 30.17 in 10.0 miles Calm Calm - N/A   Overcast
3:11 AM 53.1°F 51.1°F 93% 30.16 in 10.0 miles Calm Calm - N/A   Overcast
3:53 AM 52.0°F 50.0°F 93% 30.16 in 2.0 miles Calm Calm - N/A   Overcast
3:59 AM 52.0°F 50.0°F 93% 30.16 in 1.0 miles Calm Calm - N/A   Overcast
4:10 AM 51.1°F 50.0°F 96% 30.17 in 0.8 miles Variable 3.5 mph - N/A   Overcast
4:26 AM 51.1°F 50.0°F 96% 30.17 in 0.2 miles Calm Calm - N/A Fog Fog
4:53 AM 51.1°F 50.0°F 96% 30.17 in 0.2 miles Calm Calm - N/A Fog Fog
5:53 AM 51.1°F 50.0°F 96% 30.15 in 0.2 miles Calm Calm - N/A Fog Fog
6:18 AM 51.1°F 50.0°F 96% 30.14 in 0.2 miles Calm Calm - N/A Fog Fog
6:53 AM 51.1°F 50.0°F 96% 30.15 in 0.5 miles Calm Calm - N/A Fog Fog
7:12 AM 51.1°F 48.9°F 92% 30.14 in 0.2 miles Calm Calm - N/A Fog Fog
7:53 AM 51.1°F 50.0°F 96% 30.16 in 0.2 miles Calm Calm - N/A Fog Fog
7:58 AM 51.1°F 50.0°F 96% 30.15 in 0.5 miles Calm Calm - N/A Fog Fog
8:11 AM 51.1°F 50.0°F 96% 30.15 in 2.0 miles Calm Calm - N/A   Overcast
8:19 AM 52.0°F 50.0°F 93% 30.14 in 8.0 miles Calm Calm - N/A   Overcast
8:44 AM 52.0°F 51.1°F 97% 30.15 in 9.0 miles Calm Calm - N/A   Scattered Clouds
8:53 AM 52.0°F 51.1°F 97% 30.15 in 2.0 miles NE 3.5 mph - N/A   Mostly Cloudy
8:58 AM 52.0°F 51.1°F 97% 30.15 in 0.8 miles Calm Calm - N/A   Mostly Cloudy
9:11 AM 52.0°F 51.1°F 97% 30.15 in 0.2 miles Calm Calm - N/A Fog Fog
9:25 AM 52.0°F 51.1°F 97% 30.15 in 1.0 miles WNW 3.5 mph - N/A   Overcast
9:30 AM 52.0°F 51.1°F 97% 30.15 in 3.0 miles WNW 3.5 mph - N/A   Overcast
9:39 AM 52.0°F 51.1°F 97% 30.16 in 0.8 miles NNW 3.5 mph - N/A   Overcast
9:53 AM 53.1°F 51.1°F 93% 30.17 in 0.2 miles West 4.6 mph - N/A Fog Fog
10:37 AM 52.0°F 51.1°F 97% 30.15 in 0.8 miles Calm Calm - N/A   Mist
10:46 AM 52.0°F 51.1°F 97% 30.15 in 1.2 miles Variable 3.5 mph - N/A   Overcast
10:53 AM 52.0°F 51.1°F 97% 30.16 in 1.8 miles Calm Calm - N/A   Overcast
11:06 AM 53.1°F 52.0°F 96% 30.15 in 3.0 miles Calm Calm - N/A   Overcast
11:40 AM 54.0°F 52.0°F 93% 30.14 in 1.8 miles North 4.6 mph - N/A   Overcast
11:53 AM 54.0°F 52.0°F 93% 30.16 in 3.0 miles West 6.9 mph - N/A   Overcast
11:59 AM 54.0°F 53.1°F 97% 30.16 in 1.8 miles West 5.8 mph - N/A   Overcast
12:25 PM 55.0°F 53.1°F 93% 30.14 in 3.0 miles NW 3.5 mph - N/A   Overcast
12:53 PM 55.9°F 54.0°F 93% 30.14 in 10.0 miles West 4.6 mph - N/A   Overcast
1:35 PM 57.9°F 54.0°F 87% 30.13 in 10.0 miles North 5.8 mph - N/A   Scattered Clouds
1:53 PM 57.9°F 53.1°F 84% 30.13 in 10.0 miles Calm Calm - N/A   Clear
2:53 PM 59.0°F 54.0°F 83% 30.09 in 10.0 miles North 4.6 mph - 0.00 in   Clear
3:53 PM 55.9°F 53.1°F 90% 30.14 in 10.0 miles NW 4.6 mph - N/A   Overcast
4:05 PM 55.9°F 53.1°F 90% 30.15 in 10.0 miles NW 4.6 mph - N/A   Overcast
4:53 PM 55.0°F 53.1°F 93% 30.15 in 10.0 miles Calm Calm - N/A   Mostly Cloudy
5:44 PM 55.9°F 53.1°F 90% 30.20 in 2.5 miles West 5.8 mph - 0.07 in Rain Heavy Rain
5:49 PM 55.4°F 53.6°F 94% 30.19 in 3.0 miles South 5.8 mph - 0.08 in Rain Rain
5:53 PM 55.9°F 54.0°F 93% 30.19 in 4.0 miles South 8.1 mph - 0.09 in Rain Rain
6:53 PM 55.9°F 54.0°F 93% 30.18 in 10.0 miles Calm Calm - 0.03 in Rain Light Rain
7:21 PM 55.9°F 54.0°F 93% 30.20 in 10.0 miles NNW 8.1 mph - 0.00 in Rain Light Rain
7:34 PM 54.0°F 53.1°F 97% 30.20 in 8.0 miles Variable 5.8 mph 16.1 mph 0.00 in Rain Light Rain
7:53 PM 54.0°F 52.0°F 93% 30.21 in 10.0 miles WNW 6.9 mph - 0.00 in   Overcast
8:12 PM 54.0°F 53.1°F 97% 30.21 in 10.0 miles WNW 3.5 mph - N/A   Overcast
8:44 PM 55.0°F 53.1°F 93% 30.20 in 10.0 miles WSW 4.6 mph - N/A   Overcast
8:53 PM 55.0°F 53.1°F 93% 30.21 in 10.0 miles WSW 3.5 mph - N/A   Overcast
9:53 PM 55.0°F 51.1°F 86% 30.23 in 10.0 miles West 13.8 mph 21.9 mph N/A   Overcast
10:12 PM 55.9°F 50.0°F 80% 30.24 in 10.0 miles NW 15.0 mph - N/A   Overcast
10:53 PM 55.0°F 50.0°F 83% 30.25 in 10.0 miles WNW 11.5 mph - N/A   Overcast
Moon Phase
Nov. 04 Nov. 06 Nov. 13 Nov. 20 Nov. 28
Sunrise:07:04 AM (PST) Moon Rise:09:29 PM (PST)11/4
Sunset:04:49 PM (PST) Moon Set:11:56 AM (PST)11/4

Copyright © 2014 The Weather Underground, Inc.